RH
20 25 28 23 24 21 22 17 13 11 11 10 14 53 71 69 71 76 77 76 77 78 74 70 65 61 54 50 47 45 42 44 43 44 49 47 50 48 48 53 60 70 68 73
24 30 25 22 23 24 26 24 15 13 14 10 12 50 68 66 68 71 76 76 74 74 72 70 67 63 55 52 49 48 49 51 56 63 76 80 76 78 80 81 81 83 82 86
29 23 25 24 25 24 20 17 14 15 14 12 11 27 71 69 69 67 68 67 67 72 72 69 70 70 58 55 56 54 53 54 59 59 63 70 72 75 76 76 84 90 91 92
24 21 20 22 24 27 21 13 15 17 17 20 14 23 54 79 78 73 71 72 71 70 68 69 71 72 62 56 54 51 52 54 58 59 61 68 84 94 90 90 89 89 93 93
27 20 22 24 22 16 19 18 17 15 19 17 16 20 33 77 84 82 78 74 73 71 72 73 72 69 58 53 53 52 52 54 58 58 62 68 74 88 95 97 96 90 94 92
21 14 18 20 16 14 19 18 26 27 21 27 22 19 34 91 74 74 73 72 71 72 74 73 70 68 60 56 55 54 50 53 59 61 59 66 80 91 96 95 100 92 92 92
19 18 13 15 17 16 16 21 29 29 28 32 22 18 19 62 65 63 68 72 69 69 73 79 76 66 57 53 52 52 51 54 60 64 62 62 78 92 93 91 96 98 94 95
36 34 18 17 18 20 20 22 42 38 39 33 27 29 26 60 61 62 64 65 67 66 72 78 73 62 58 53 50 52 52 56 62 67 64 58 64 78 89 91 88 88 93 92
38 35 17 16 16 17 22 25 24 38 40 41 32 42 60 68 72 72 69 69 69 66 75 79 67 58 54 54 53 53 53 56 62 68 63 60 64 74 84 91 98 99 97 95
28 28 19 17 15 18 22 24 31 47 44 45 42 51 43 84 78 75 74 74 69 66 76 79 65 58 55 55 54 55 55 58 67 68 63 60 69 77 84 92 97 100 98 97
26 27 24 18 21 25 27 28 38 38 53 44 49 45 57 64 67 74 72 70 71 70 78 81 69 60 56 57 58 57 55 61 71 67 60 57 68 78 83 87 93 95 88 97
28 38 37 26 21 20 24 34 45 62 49 79 77 39 58 63 64 66 70 67 69 68 75 77 69 58 55 55 57 55 55 66 68 63 59 64 75 81 87 92 95 84 93 93
29 44 45 29 28 25 25 32 46 58 63 61 66 38 64 72 72 66 69 73 67 69 70 71 68 56 48 50 55 56 58 71 65 62 62 68 81 84 90 92 93 88 94 97
30 50 34 40 33 37 31 36 45 35 62 43 42 30 72 77 77 75 74 69 66 67 63 65 64 56 51 53 58 59 66 68 65 64 64 76 85 88 92 91 90 93 95 98
41 54 39 29 27 30 29 31 47 32 24 38 28 38 49 70 73 70 71 67 63 62 59 60 60 54 53 55 59 61 72 68 67 66 73 83 87 89 95 90 92 90 96 98
50 71 43 39 36 34 32 32 49 38 37 39 41 42 36 55 70 70 64 62 61 60 56 53 49 51 57 59 60 72 71 71 65 68 81 89 91 90 98 95 91 92 94 98
64 69 51 40 40 34 36 42 37 38 42 41 48 34 67 74 67 68 64 60 60 58 56 53 55 59 60 60 70 75 73 68 67 78 85 93 95 95 97 98 92 96 99 98
64 58 61 60 44 57 36 35 30 36 35 44 40 50 66 71 74 68 63 63 61 57 57 56 60 60 60 65 75 71 70 70 78 87 91 93 96 98 98 99 97 100 100 100
59 62 87 90 72 54 44 37 41 37 38 62 60 78 76 70 70 74 60 58 62 61 58 61 59 61 65 72 78 75 76 80 87 91 95 98 96 99 100 100 98 100 100 100
88 98 85 88 86 90 48 40 40 37 55 67 70 75 72 67 76 88 63 56 59 59 59 62 64 67 70 76 79 81 85 88 92 96 98 94 91 96 100 99 95 100 100 99
73 84 71 70 85 75 52 42 36 52 63 71 69 73 76 81 88 78 61 63 62 63 65 66 70 74 76 80 78 89 86 88 92 94 96 89 84 98 98 94 99 100 100 99
80 82 82 84 96 91 52 43 53 64 84 81 81 83 92 81 69 65 63 65 67 69 69 70 77 73 78 83 89 76 84 91 80 92 94 91 87 93 97 96 100 100 99 100
73 79 82 77 78 68 79 54 74 77 80 79 82 86 71 66 62 62 71 72 73 73 72 77 73 75 78 87 89 85 93 89 87 98 95 90 85 91 94 94 100 100 100 100
71 68 85 77 83 86 86 81 76 75 80 80 79 67 60 64 64 72 76 79 76 70 76 85 76 79 84 80 90 93 95 77 84 95 92 86 86 98 92 87 92 99 100 100
78 73 85 89 95 87 82 81 83 83 76 68 62 59 65 65 70 72 79 79 73 76 83 84 89 88 85 85 88 81 81 79 98 93 89 84 90 94 92 89 92 99 97 97
78 78 86 86 84 82 86 86 77 74 70 63 66 71 67 66 75 78 81 78 76 82 86 91 92 86 86 90 80 74 79 88 98 94 89 89 97 94 92 99 91 80 92 94
Wind_Speed
2 3 6 9 5 3 2 1 2 2 3 2 5 7 4 4 8 8 6 6 6 6 6 11 15 18 22 25 28 30 32 31 32 32 31 30 29 26 26 27 28 29 32 32
4 6 9 5 5 3 0 2 3 3 5 1 4 3 4 3 2 4 7 6 6 4 4 8 12 16 21 23 27 28 29 28 29 26 22 17 17 17 20 26 27 28 32 31
6 5 6 6 4 4 3 5 4 3 4 4 2 1 6 2 5 5 4 4 5 6 4 2 7 11 16 19 22 24 25 26 26 27 27 26 19 25 26 31 30 31 29 29
6 5 7 4 4 7 4 5 4 4 3 3 2 5 3 7 7 7 6 6 6 6 4 2 1 5 11 16 19 23 24 25 25 26 28 29 22 18 22 22 23 26 26 29
8 5 4 4 7 9 6 5 5 3 3 2 2 2 2 7 6 8 8 7 7 6 6 5 3 3 8 13 16 18 21 23 24 26 28 28 27 23 21 21 22 20 23 24
6 2 6 6 2 5 8 6 6 4 2 3 8 8 4 6 6 8 5 7 8 7 6 6 4 1 4 10 13 16 21 23 23 25 27 25 25 24 21 21 22 24 24 25
2 3 3 4 6 5 4 7 1 2 1 7 2 3 6 6 6 14 16 10 8 7 7 6 8 2 5 11 15 18 21 23 22 22 26 26 23 23 18 21 22 26 25 25
9 5 10 6 8 7 6 6 5 6 4 3 0 6 5 2 3 6 7 8 7 7 6 6 6 2 6 10 14 15 19 22 21 21 26 28 26 24 21 20 21 22 24 26
6 6 0 1 3 9 5 5 1 6 3 2 4 5 1 4 4 6 8 7 8 7 7 6 4 4 6 8 11 14 18 20 20 20 25 27 26 25 26 25 22 23 24 26
6 2 1 3 4 5 5 8 3 2 4 5 5 5 5 8 10 9 8 9 7 6 6 6 3 1 3 6 9 10 14 17 17 18 24 27 26 25 26 25 26 25 27 27
6 4 1 3 4 7 3 4 3 4 4 4 2 5 5 12 15 16 12 10 8 7 6 6 5 2 2 5 6 8 13 16 15 20 26 29 28 27 27 26 27 25 29 28
6 4 4 7 2 3 3 6 7 5 5 2 3 7 1 6 13 14 13 11 7 7 7 7 7 4 2 5 6 10 14 15 17 22 26 26 26 26 26 26 25 29 28 28
8 5 2 2 3 1 5 5 4 5 3 7 5 7 2 1 9 13 13 8 8 7 6 6 6 4 3 8 8 10 14 14 20 25 28 27 26 26 27 27 28 29 28 28
9 5 11 15 6 5 6 7 7 6 3 5 10 9 4 6 9 8 8 9 8 7 7 5 3 1 4 7 7 10 12 15 22 26 28 26 25 25 25 27 28 28 27 26
6 6 5 1 2 5 4 7 11 10 15 8 13 12 7 13 15 14 8 8 8 7 6 5 3 1 3 5 7 10 10 17 22 25 24 24 24 24 23 25 26 28 26 25
3 4 4 3 2 1 4 4 11 10 2 6 5 12 6 6 8 8 11 11 9 7 6 6 4 4 5 7 8 7 14 19 23 24 22 22 23 24 22 25 26 27 28 26
4 7 6 6 3 3 7 9 9 5 4 6 8 12 6 4 13 14 12 10 8 7 6 5 5 7 7 8 8 10 15 20 22 21 21 21 22 23 23 22 24 26 26 27
3 4 3 3 3 7 3 2 5 10 5 7 1 1 2 4 5 9 7 8 8 7 6 5 9 7 7 9 7 12 17 19 19 18 20 22 23 23 23 23 24 24 25 26
5 4 0 2 8 6 9 5 6 7 7 6 6 7 9 11 7 6 6 5 5 7 10 12 9 7 7 8 8 13 15 16 16 17 19 22 22 22 22 23 25 23 23 25
7 6 6 2 4 9 3 2 3 3 5 7 10 12 15 7 5 4 6 8 12 16 14 11 8 7 8 9 9 12 14 14 16 19 20 22 22 22 21 24 25 23 23 21
5 4 13 10 2 6 5 3 5 5 6 5 11 13 9 4 2 9 11 11 15 15 12 8 7 8 7 8 11 12 15 15 18 19 19 21 22 20 20 24 22 22 23 22
5 6 3 3 4 9 5 3 7 4 3 6 8 6 9 12 13 12 11 10 13 12 9 6 6 6 7 9 12 15 15 18 20 18 20 20 22 20 21 23 18 19 21 20
3 6 6 8 6 1 2 1 2 5 7 5 7 9 14 14 10 11 9 8 10 10 8 7 6 6 10 11 11 15 16 18 19 17 20 20 22 21 21 23 19 19 21 19
2 3 4 4 3 1 1 2 3 4 6 8 12 14 13 12 12 11 8 8 9 8 7 6 6 8 11 12 11 13 15 19 18 19 20 21 23 23 21 24 24 21 22 22
5 8 6 3 1 4 2 2 6 9 11 13 11 10 12 14 11 9 7 9 10 8 8 7 6 7 10 11 12 14 16 18 17 18 20 22 23 24 22 24 24 18 19 19
4 6 5 5 11 5 4 7 9 13 12 13 16 10 8 13 11 14 10 11 12 11 8 7 6 6 7 9 12 15 15 16 15 18 21 23 23 24 23 24 26 17 16 17
Wind_Direction
54 93 218 216 179 111 56 304 263 279 350 235 100 128 138 122 118 130 133 123 107 100 91 60 53 49 44 40 35 30 25 21 17 14 10 3 360 358 356 353 356 355 354 355
39 234 221 181 161 176 107 267 257 311 351 90 90 110 138 141 142 152 147 145 137 117 73 52 44 41 38 34 31 27 26 22 19 16 12 1 347 349 350 348 352 351 351 352
173 209 109 154 178 174 205 181 201 208 8 13 30 170 171 115 116 131 148 151 149 159 139 56 32 28 30 30 29 27 25 23 19 16 13 8 12 353 354 352 347 345 347 346
233 227 224 142 208 148 196 199 153 147 99 231 351 275 205 167 162 167 167 170 174 175 162 178 55 33 29 27 25 25 24 22 19 18 16 14 9 350 339 333 334 335 340 343
236 191 183 177 197 161 201 129 130 104 101 73 276 296 282 132 198 189 187 189 194 194 189 197 186 77 38 26 22 22 22 22 19 18 16 11 4 352 337 335 332 335 338 340
231 265 152 196 76 153 139 81 52 56 75 293 203 178 212 194 200 165 187 196 195 194 194 194 185 143 28 25 18 18 17 18 16 15 13 8 2 355 343 337 340 338 337 338
222 233 187 139 86 23 96 105 260 331 171 232 300 190 268 193 193 175 181 188 192 183 177 178 182 153 27 17 12 13 11 10 9 9 8 6 360 354 347 344 338 338 335 333
186 266 167 188 173 170 191 160 164 204 199 249 80 230 267 221 138 131 144 163 175 172 172 175 169 112 29 14 8 5 6 2 2 4 2 2 1 354 349 344 341 336 335 332
175 255 160 116 135 147 190 205 174 100 44 45 226 286 229 139 126 142 157 174 187 181 178 177 157 54 16 357 357 2 359 356 357 359 357 357 356 355 349 345 336 335 335 333
201 209 248 160 111 43 163 153 92 31 172 232 265 269 230 203 190 179 188 199 196 171 168 167 149 94 352 337 341 352 354 348 350 354 355 354 354 354 352 348 339 331 335 336
144 141 187 106 213 169 146 161 72 126 157 197 250 252 218 201 185 188 194 199 185 182 180 179 181 191 291 318 326 339 352 348 355 354 353 355 355 356 355 351 347 341 339 339
178 141 164 199 272 191 157 179 159 150 204 222 157 269 345 192 187 185 190 193 172 171 175 166 178 194 267 334 329 349 349 352 357 351 353 356 357 356 355 351 348 348 346 341
178 172 157 331 346 32 209 187 128 117 96 191 146 261 25 157 166 190 184 160 161 156 153 159 177 204 347 345 339 342 347 354 351 352 355 356 357 356 354 347 346 347 343 340
139 150 206 224 210 149 190 190 175 149 131 187 230 263 200 203 190 184 168 158 155 157 156 170 162 253 350 343 330 343 350 352 350 351 354 354 353 353 354 348 346 342 342 340
118 194 192 324 230 170 211 182 176 192 218 190 252 220 206 205 198 190 155 146 147 151 156 158 180 203 15 356 354 349 354 351 351 351 352 353 350 353 353 349 345 343 343 342
358 194 53 237 214 320 265 190 192 214 178 242 260 259 205 205 118 150 162 154 154 153 151 159 139 85 46 15 358 2 355 350 351 354 350 350 348 352 350 349 346 344 346 343
175 144 172 229 113 221 280 206 197 196 195 181 215 243 152 157 181 173 153 149 152 149 145 134 99 74 47 13 5 3 352 349 355 356 348 345 346 348 350 349 347 345 343 344
155 107 181 160 139 229 255 258 214 207 215 210 222 153 154 133 95 106 107 135 139 133 123 111 98 75 35 15 12 349 352 358 357 349 344 347 347 347 348 347 346 344 342 339
177 129 102 155 220 304 286 188 166 173 251 183 153 111 113 115 84 36 89 93 119 113 114 107 98 75 39 20 356 354 1 2 353 347 342 344 347 345 346 345 344 343 340 338
183 192 207 155 202 217 249 240 154 99 272 180 137 155 150 150 140 188 118 110 99 105 112 111 92 65 34 14 357 6 5 355 351 344 341 343 350 349 345 345 347 342 345 340
165 127 201 207 224 292 246 215 136 152 243 134 159 159 152 113 153 128 116 94 100 109 107 104 80 58 29 15 17 12 2 356 346 344 344 350 355 352 344 350 348 343 344 344
144 143 173 86 188 253 180 123 170 183 38 139 135 121 99 112 111 113 111 109 107 107 105 104 97 57 35 26 17 11 4 353 353 352 346 352 355 353 351 355 346 346 344 345
182 176 173 173 206 234 1 276 65 152 149 157 117 119 129 126 124 126 121 117 124 125 111 103 92 69 38 29 16 9 358 356 352 350 351 356 355 357 358 358 350 347 350 346
231 151 123 122 234 174 155 80 109 115 116 114 121 131 136 131 132 122 127 129 123 116 106 113 92 60 35 24 17 11 360 358 357 353 357 357 357 355 360 1 358 355 354 348
204 145 130 99 63 98 33 120 129 103 104 105 105 121 129 127 129 133 128 129 130 125 117 108 84 56 31 22 18 10 2 0 356 356 359 358 358 357 355 356 357 354 358 357
196 158 155 210 188 153 160 155 135 126 129 125 119 107 103 131 128 130 129 134 136 130 123 103 80 50 29 21 13 4 4 3 2 360 360 360 357 357 357 355 354 6 4 3